CAPE
1300 1193 1115 1416 1232 1141 1333 1287 1109 1017 809 546 529 438 421 406 370 487 697 668 601 672 795 420 238 171 145 168 74 60 39 106 186 268 187 140 74 12 9 2 4 17 30
1401 1414 1102 1499 1328 1043 1312 1308 1051 931 841 692 621 593 484 430 375 429 549 670 650 737 584 195 173 291 173 81 27 1 0 0 0 63 69 37 3 7 2 0 0 1 0
1704 1634 1111 1126 1372 1049 1138 1260 990 867 743 613 519 501 551 458 397 482 530 553 592 738 465 187 309 159 51 9 9 0 0 0 1 33 45 6 0 5 1 1 0 0 0
1680 1663 1628 1373 1444 1289 1082 1071 1057 810 681 622 489 496 573 503 446 535 572 491 478 459 356 506 257 26 0 0 0 0 0 0 18 39 7 3 1 9 4 1 0 0 0
1622 1637 1554 1245 1316 1214 1041 866 902 870 649 569 499 502 458 425 503 611 518 446 427 354 542 246 61 0 0 0 0 0 0 0 2 1 0 0 0 3 3 0 0 0 1
1723 1579 1490 1226 1221 1145 1095 1023 1012 928 690 556 473 419 424 484 617 587 487 382 468 393 115 20 0 0 0 0 0 0 0 0 0 0 0 0 0 3 2 2 2 3 5
1833 1798 1551 1161 866 1050 1085 999 1024 826 700 588 472 495 541 668 627 533 573 394 118 32 0 0 0 0 0 0 0 0 0 0 0 0 0 0 0 4 3 3 4 8 7
1709 1900 1661 1267 1167 1025 1085 890 746 739 579 597 494 485 587 652 587 477 259 64 2 0 0 0 0 0 0 0 0 0 0 0 0 0 0 0 1 5 4 10 5 4 17
1807 1680 1319 1148 1059 959 875 676 576 558 556 537 513 496 594 467 325 136 41 1 0 0 0 0 0 0 0 0 0 0 0 0 0 0 0 0 3 7 12 3 16 19 11
888 1075 887 979 871 875 769 225 280 269 313 472 432 474 338 205 62 8 0 0 0 0 0 0 0 0 0 0 0 0 0 0 0 0 0 0 11 21 11 35 28 12 1
0 155 894 931 992 624 293 34 0 7 61 36 86 105 79 7 0 0 0 0 0 0 0 0 0 0 0 0 0 0 0 0 0 0 0 6 16 9 27 33 30 2 13
0 0 337 835 742 446 155 6 10 1 0 0 0 0 3 0 0 0 0 0 0 0 0 0 0 0 0 0 0 0 0 0 0 0 9 12 17 37 25 39 12 21 20
0 0 0 608 960 448 87 0 0 0 0 0 0 0 0 0 0 0 0 0 0 0 0 0 0 0 0 0 0 0 0 0 0 0 1 22 38 23 48 27 18 28 16
0 0 0 0 97 232 62 3 0 0 0 0 0 0 1 3 0 0 0 0 0 0 0 0 0 0 0 0 0 0 0 0 0 0 0 4 30 42 43 25 38 22 17
0 0 0 0 0 482 143 12 0 0 0 0 0 0 0 0 0 0 0 0 0 0 0 0 0 0 0 0 0 0 0 0 0 0 0 0 1 25 53 40 32 35 16
0 0 0 0 0 2 336 178 40 44 7 0 0 0 0 0 0 0 0 0 0 0 0 0 0 0 0 0 0 0 0 0 0 0 0 0 0 0 10 25 18 16 9
0 0 0 0 0 0 443 354 171 77 9 0 0 0 0 0 0 0 0 0 0 0 0 0 0 0 0 0 0 0 0 0 0 0 0 0 0 0 0 0 1 8 16
0 0 0 0 0 169 263 452 398 200 15 0 0 0 1 0 0 0 0 0 0 0 0 0 0 0 0 0 0 0 0 0 0 0 0 0 0 0 0 0 0 4 9
0 0 0 0 0 281 333 185 182 119 22 0 0 0 1 1 2 0 3 0 0 0 0 0 0 0 0 0 0 0 0 0 0 0 0 0 0 0 0 0 0 0 1
0 0 0 0 0 0 80 9 2 1 1 0 1 1 1 1 2 1 1 0 0 0 0 0 0 0 0 0 0 0 0 0 0 0 0 0 0 0 0 0 0 0 0
0 0 0 0 0 1 16 5 0 0 2 1 1 1 1 0 0 0 0 0 0 0 0 0 0 0 0 0 0 0 0 0 0 0 0 0 0 0 0 0 0 0 0
0 0 0 0 0 0 0 1 1 1 1 2 1 1 1 0 0 0 0 0 0 0 0 0 0 0 0 0 0 0 0 0 0 0 0 0 0 0 0 0 0 0 0
0 0 0 0 0 0 0 1 0 0 1 2 2 2 2 0 0 0 0 0 0 0 0 0 0 0 0 0 0 0 0 0 0 0 0 0 0 0 0 0 0 0 0
0 0 0 0 0 0 0 0 2 1 1 2 1 1 1 1 0 0 0 0 0 0 0 0 0 0 0 0 0 0 0 0 0 0 0 0 0 0 0 0 0 0 0
0 0 0 0 0 0 0 0 1 2 2 2 1 1 1 0 0 0 0 0 0 0 0 0 0 0 0 0 0 0 0 0 0 0 0 0 0 0 0 0 0 0 0
0 0 0 0 0 0 0 0 0 0 0 1 2 1 1 1 1 1 0 0 0 0 0 0 0 0 0 0 0 0 0 0 0 0 0 0 0 0 0 0 0 0 0
CIN
-7 -64 -70 -27 -30 -23 -13 -16 -20 -15 -17 -26 -22 -27 -32 -31 -36 -27 -15 -14 -6 -1 -0 -6 -32 -58 -59 -45 -82 -80 -66 -27 -7 -0 -0 -0 -2 -0 -0 -1 -2 -0 -42
-8 -39 -54 -13 -22 -37 -12 -17 -25 -19 -15 -16 -21 -19 -19 -23 -28 -24 -14 -6 -3 -0 -0 -39 -44 -13 -41 -76 -98 -8 -0 -0 -0 -11 -12 -23 -0 -0 -0 -0 -0 -0 -0
-6 -20 -51 -53 -18 -30 -34 -14 -22 -24 -18 -20 -22 -24 -23 -20 -23 -17 -12 -8 -3 -0 -2 -34 -14 -34 -86 -103 -80 -0 -0 -0 -2 -14 -19 -21 -0 -1 -0 -0 -0 -0 -0
-3 -15 -9 -27 -11 -26 -15 -18 -14 -18 -18 -18 -26 -24 -22 -26 -22 -10 -8 -9 -5 -1 -8 -1 -19 -85 -0 -0 -0 -0 -0 -0 -6 -10 -12 -24 -12 -2 -0 -0 -0 -0 -0
-2 -3 -9 -25 -23 -20 -17 -20 -22 -15 -17 -18 -20 -20 -23 -28 -20 -8 -9 -7 -5 -5 -0 -22 -81 -0 -0 -0 -0 -0 -0 -0 -11 -13 -7 -0 -8 -1 -0 -0 -0 -0 -0
-3 -4 -19 -32 -20 -33 -31 -17 -11 -14 -13 -16 -20 -27 -24 -18 -9 -10 -9 -11 -0 -6 -33 -87 -4 -0 -0 -0 -0 -0 -0 -0 -0 -0 -0 -0 -0 -0 -0 -0 -0 -0 -0
-2 -2 -8 -24 -63 -38 -57 -26 -9 -11 -12 -13 -13 -14 -11 -5 -6 -5 -0 -13 -49 -87 -0 -0 -0 -0 -0 -0 -0 -0 -0 -0 -0 -0 -0 -0 -0 -0 -0 -0 -0 -0 -0
-5 -1 -2 -14 -18 -35 -10 -43 -15 -10 -17 -9 -18 -12 -6 -3 -2 -0 -24 -72 -10 -0 -0 -0 -0 -0 -0 -0 -0 -0 -0 -0 -0 -0 -0 -0 -0 -0 -0 -0 -0 -0 -2
-5 -8 -8 -3 -12 -14 -22 -24 -18 -16 -13 -7 -7 -7 -2 -5 -14 -65 -100 -0 -0 -0 -0 -0 -0 -0 -0 -0 -0 -0 -0 -0 -0 -0 -0 -0 -0 -0 -0 -2 -1 -0 -1
-5 -2 -20 -14 -16 -12 -15 -99 -81 -69 -39 -9 -12 -2 -10 -31 -99 -155 -0 -0 -0 -0 -0 -0 -0 -0 -0 -0 -0 -0 -0 -0 -0 -0 -0 -0 -0 -1 -1 -1 -3 -2 -0
-0 -56 -9 -20 -24 -76 -90 -164 -0 -102 -105 -76 -47 -49 -83 -143 -0 -0 -0 -0 -0 -0 -0 -0 -0 -0 -0 -0 -0 -0 -0 -0 -0 -0 -0 -2 -4 -0 -1 -0 -1 -1 -0
-0 -0 -182 -22 -46 -82 -133 -192 -169 -10 -0 -0 -0 -0 -37 -0 -0 -0 -0 -0 -0 -0 -0 -0 -0 -0 -0 -0 -0 -0 -0 -0 -0 -0 -14 -6 -2 -1 -0 -0 -2 -1 -0
-0 -0 -0 -52 -8 -56 -171 -0 -0 -0 -0 -0 -0 -0 -0 -0 -0 -0 -0 -0 -0 -0 -0 -0 -0 -0 -0 -0 -0 -0 -0 -0 -0 -0 -14 -12 -0 -1 -0 -0 -2 -1 -2
-0 -0 -0 -0 -60 -106 -183 -246 -0 -0 -0 -0 -0 -0 -20 -0 -0 -0 -0 -0 -0 -0 -0 -0 -0 -0 -0 -0 -0 -0 -0 -0 -0 -0 -0 -25 -0 -1 -0 -2 -0 -0 -1
-0 -0 -0 -0 -0 -43 -132 -186 -0 -0 -0 -0 -0 -0 -0 -0 -0 -0 -0 -0 -0 -0 -0 -0 -0 -0 -0 -0 -0 -0 -0 -0 -0 -0 -0 -0 -18 -0 -0 -0 -0 -0 -0
-0 -0 -0 -0 -0 -63 -59 -98 -126 -107 -120 -0 -0 -0 -0 -0 -0 -0 -0 -0 -0 -0 -0 -0 -0 -0 -0 -0 -0 -0 -0 -0 -0 -0 -0 -0 -0 -0 -2 -0 -0 -0 -1
-0 -0 -0 -0 -0 -0 -28 -42 -98 -99 -124 -0 -0 -0 -0 -0 -0 -0 -0 -0 -0 -0 -0 -0 -0 -0 -0 -0 -0 -0 -0 -0 -0 -0 -0 -0 -0 -0 -0 -0 -2 -0 -0
-0 -0 -0 -0 -0 -91 -41 -10 -28 -70 -125 -0 -0 -0 -0 -0 -0 -0 -0 -0 -0 -0 -0 -0 -0 -0 -0 -0 -0 -0 -0 -0 -0 -0 -0 -0 -0 -0 -0 -0 -0 -0 -0
-0 -0 -0 -0 -0 -25 -18 -34 -43 -84 -112 -0 -0 -0 -0 -0 -0 -0 -0 -0 -0 -0 -0 -0 -0 -0 -0 -0 -0 -0 -0 -0 -0 -0 -0 -0 -0 -0 -0 -0 -0 -0 -0
-0 -0 -0 -0 -0 -0 -29 -67 -35 -0 -0 -0 -0 -0 -0 -0 -0 -0 -0 -0 -0 -0 -0 -0 -0 -0 -0 -0 -0 -0 -0 -0 -0 -0 -0 -0 -0 -0 -0 -0 -0 -0 -0
-0 -0 -0 -0 -0 -0 -54 -53 -0 -0 -0 -0 -0 -0 -0 -0 -0 -0 -0 -0 -0 -0 -0 -0 -0 -0 -0 -0 -0 -0 -0 -0 -0 -0 -0 -0 -0 -0 -0 -0 -0 -0 -0
-0 -0 -0 -0 -0 -0 -0 -0 -5 -0 -0 -0 -0 -0 -0 -0 -0 -0 -0 -0 -0 -0 -0 -0 -0 -0 -0 -0 -0 -0 -0 -0 -0 -0 -0 -0 -0 -0 -0 -0 -0 -0 -0
-0 -0 -0 -0 -0 -0 -0 -0 -0 -0 -0 -0 -0 -0 -0 -0 -0 -0 -0 -0 -0 -0 -0 -0 -0 -0 -0 -0 -0 -0 -0 -0 -0 -0 -0 -0 -0 -0 -0 -0 -0 -0 -0
-0 -0 -0 -0 -0 -0 -0 -0 -0 -0 -0 -0 -0 -0 -0 -0 -0 -0 -0 -0 -0 -0 -0 -0 -0 -0 -0 -0 -0 -0 -0 -0 -0 -0 -0 -0 -0 -0 -0 -0 -0 -0 -0
-0 -0 -0 -0 -0 -0 -0 -0 -0 -0 -0 -0 -0 -0 -0 -0 -0 -0 -0 -0 -0 -0 -0 -0 -0 -0 -0 -0 -0 -0 -0 -0 -0 -0 -0 -0 -0 -0 -0 -0 -0 -0 -0
-0 -0 -0 -0 -0 -0 -0 -0 -0 -0 -0 -0 -0 -0 -0 -0 -0 -0 -0 -0 -0 -0 -0 -0 -0 -0 -0 -0 -0 -0 -0 -0 -0 -0 -0 -0 -0 -0 -0 -0 -0 -0 -0
Wind_Speed
17 11 9 8 8 9 10 10 11 11 10 7 7 7 7 7 8 8 9 9 9 10 10 11 11 11 12 13 14 16 16 17 18 20 20 21 22 23 23 24 25 25 26
15 11 9 9 9 10 11 12 11 12 11 10 6 6 7 7 7 8 8 8 8 9 9 10 10 11 12 13 14 15 16 17 18 19 20 21 22 23 23 24 25 26 26
13 13 10 10 12 12 13 12 13 12 12 11 9 6 6 7 7 7 7 7 7 8 8 9 10 11 12 13 14 15 16 16 17 17 18 20 22 23 24 25 26 26 26
15 13 12 12 14 13 14 15 14 14 13 12 10 8 7 7 8 8 7 7 7 7 8 8 9 11 12 13 14 15 15 15 17 17 18 20 22 23 24 25 26 25 24
18 14 12 14 14 14 16 17 15 15 15 14 12 11 9 9 8 8 7 7 6 6 8 11 9 10 12 13 14 15 15 16 18 17 19 21 22 23 24 25 25 24 23
21 18 15 17 19 16 17 19 17 15 14 14 13 12 10 9 7 7 7 6 6 6 8 10 11 11 12 13 14 15 15 18 16 18 20 21 22 22 23 23 23 22 22
23 21 19 20 20 21 18 19 19 16 15 14 13 12 10 7 5 5 5 5 5 7 8 10 11 12 13 14 14 15 16 18 18 18 20 21 22 22 22 22 21 21 22
24 23 23 21 22 22 25 20 20 17 16 14 11 9 7 5 3 3 4 4 5 7 8 9 11 12 13 14 15 16 17 19 18 19 20 21 21 21 21 21 20 20 21
24 26 26 23 23 22 22 26 23 19 18 15 11 7 5 4 4 3 3 4 5 6 7 9 10 11 13 14 15 16 17 19 18 20 20 20 20 20 20 20 19 19 21
26 26 25 25 25 24 23 23 21 21 23 16 10 6 5 4 4 4 4 4 5 6 7 8 10 12 13 14 15 16 18 19 18 19 20 20 19 19 19 18 18 19 20
27 28 27 25 21 18 20 20 19 18 17 21 20 7 7 6 4 6 5 4 5 5 7 8 10 12 14 15 16 17 17 17 18 19 19 19 18 19 18 17 17 19 20
30 30 28 25 23 20 20 22 20 20 17 19 21 27 17 9 7 6 5 5 5 6 7 9 10 12 14 15 16 17 16 17 17 18 19 18 18 17 17 17 17 18 19
31 31 31 28 24 24 24 24 24 22 22 24 27 28 25 10 9 7 7 7 7 7 8 11 12 13 14 15 15 15 16 16 16 17 18 19 17 16 15 16 17 17 19
31 32 32 32 30 26 24 24 22 22 24 26 26 26 26 19 9 9 9 10 11 9 9 11 11 12 13 14 14 15 16 16 15 16 17 18 18 16 15 16 16 17 18
32 32 33 32 32 28 25 22 21 22 23 23 25 21 20 21 13 13 11 12 11 10 9 9 10 11 12 13 14 14 15 16 15 15 15 16 17 17 15 16 16 17 18
34 33 33 33 32 31 24 23 22 20 20 21 22 21 15 12 17 15 14 13 13 12 10 9 9 10 11 12 13 14 15 16 15 15 14 15 15 15 16 16 17 18 18
34 34 33 33 32 32 27 25 22 19 17 17 17 15 15 13 13 14 17 15 13 12 13 11 9 10 10 11 12 13 15 15 15 16 15 14 15 15 15 16 17 18 18
31 33 32 32 31 31 28 24 20 18 16 14 13 13 12 11 11 13 11 16 15 15 14 12 9 10 10 11 12 13 14 14 15 15 16 16 15 15 15 15 16 18 18
29 31 31 30 28 29 23 23 21 19 19 17 14 13 11 11 13 12 13 10 12 15 16 12 12 11 10 11 12 13 14 15 14 14 14 15 15 14 13 14 15 16 18
29 30 29 28 27 27 21 22 20 20 19 17 16 13 10 11 12 10 12 11 12 16 15 14 12 11 10 10 12 14 15 15 15 14 14 14 14 14 14 15 14 15 16
29 29 28 27 26 24 22 20 21 21 20 20 17 15 12 11 12 12 11 11 13 16 13 14 12 12 12 10 12 15 16 16 16 15 14 13 13 14 15 15 16 16 15
29 29 27 26 25 23 22 21 20 19 19 18 17 14 14 12 12 11 12 13 13 13 11 12 10 12 15 13 19 18 21 19 17 16 15 15 14 14 15 15 16 16 15
29 28 27 25 24 23 22 21 19 18 17 18 18 17 14 12 10 9 11 11 12 12 10 11 10 13 16 17 19 20 20 20 16 15 15 15 15 15 15 15 15 16 15
27 27 26 24 23 23 21 19 18 18 19 20 19 17 15 13 12 11 10 10 10 11 14 17 18 16 17 16 18 18 17 17 19 18 16 15 16 16 16 16 15 16 14
25 25 25 24 23 22 21 19 18 17 17 18 17 15 15 15 13 13 13 11 11 11 13 16 20 20 21 18 16 16 17 17 19 19 20 18 18 18 17 17 16 15 15
23 23 23 23 23 22 21 20 19 18 16 16 16 15 15 14 14 15 15 14 13 13 13 14 14 17 19 19 17 17 17 17 18 18 19 19 19 18 18 17 16 15 14
Wind_Direction
325 12 1 339 346 332 318 317 315 315 319 335 328 333 358 13 24 31 43 42 25 37 30 16 7 1 357 356 358 0 3 7 12 17 20 14 14 12 8 8 13 13 14
327 345 350 332 332 326 311 308 308 306 308 310 337 338 332 349 3 13 17 26 34 32 25 13 7 3 357 356 356 358 3 11 14 23 21 17 11 7 5 5 7 10 8
341 338 342 330 312 311 298 309 301 304 302 304 310 328 338 336 339 356 9 10 22 33 23 14 8 348 346 349 349 352 356 358 6 3 13 13 8 5 4 5 7 9 8
342 335 331 319 303 312 301 295 297 293 294 300 305 312 320 322 324 336 350 357 15 26 30 20 0 349 346 347 346 350 355 350 343 8 3 1 0 360 1 5 7 8 11
320 332 336 319 315 311 302 298 296 293 289 294 298 301 307 311 317 328 336 344 6 25 31 33 351 330 336 347 351 353 352 343 345 11 1 356 358 359 2 6 11 14 15
316 321 322 311 301 311 309 292 295 295 294 294 296 300 301 307 317 326 336 350 14 31 10 25 24 350 352 354 357 355 347 333 6 5 358 357 356 2 7 11 14 16 16
313 312 320 304 298 295 307 297 291 292 294 295 296 296 300 310 321 333 353 5 15 12 8 10 14 20 8 360 358 355 349 345 359 10 7 4 2 4 8 12 16 15 11
311 311 307 305 299 296 275 294 286 289 291 295 300 301 301 303 323 329 332 341 353 355 359 6 14 13 7 0 358 355 351 348 2 7 7 4 6 6 10 11 13 12 15
314 308 305 306 301 304 293 273 283 289 290 294 293 293 293 299 302 304 336 347 346 355 357 2 2 0 359 355 356 355 353 356 2 4 6 5 6 9 8 7 11 15 17
307 310 311 310 307 303 300 303 298 297 290 294 289 272 269 277 286 299 318 334 354 352 351 353 356 353 351 352 353 352 349 353 3 6 3 2 6 10 8 12 14 14 17
308 310 312 311 314 319 308 316 321 314 316 306 292 271 259 265 274 288 301 314 329 347 353 351 352 353 351 348 348 344 350 355 3 3 1 5 10 6 10 11 13 14 20
306 305 310 314 316 317 311 313 309 315 313 311 309 312 268 256 270 280 291 304 314 326 336 342 344 343 340 345 342 347 351 360 1 358 355 6 4 8 6 11 10 13 19
302 302 307 309 313 309 308 310 308 305 303 300 304 316 305 264 262 265 276 289 304 319 325 328 333 340 345 348 350 353 351 2 4 2 354 355 2 9 15 10 11 14 15
308 303 301 302 303 307 311 311 314 312 298 299 302 314 307 275 273 263 275 282 293 306 318 329 339 349 355 358 357 355 355 6 12 6 356 355 352 359 11 11 11 11 16
310 305 302 302 299 301 304 310 313 316 316 308 307 305 316 293 298 272 278 287 292 300 314 328 339 348 355 359 357 356 354 355 7 4 356 353 352 356 6 11 10 10 13
312 307 302 300 298 297 301 304 308 315 321 324 315 323 322 327 323 286 282 281 288 293 308 324 334 340 348 357 356 353 352 350 357 359 356 350 347 351 354 358 0 1 4
320 307 301 299 299 293 295 295 302 309 321 326 334 351 356 338 343 312 280 285 293 304 298 308 324 332 337 343 349 349 351 351 344 351 355 346 337 340 342 347 353 351 356
328 311 299 299 296 295 293 291 299 303 311 325 336 344 351 350 359 337 326 287 291 290 296 294 306 317 329 331 338 342 347 350 342 342 342 337 334 330 336 344 348 347 350
335 310 305 303 302 298 297 295 295 300 301 311 322 325 333 327 323 340 309 327 315 281 280 299 300 309 319 321 329 337 345 342 341 347 352 339 336 339 340 345 351 349 349
334 314 310 309 311 303 300 297 298 300 302 309 314 325 325 330 318 332 329 332 324 303 292 297 294 305 310 318 327 326 331 334 336 340 341 347 345 337 337 339 346 348 351
337 328 316 314 313 309 303 299 296 296 300 304 312 312 310 314 316 321 329 330 317 305 319 295 293 300 300 311 323 324 321 325 325 324 335 339 342 339 336 336 337 340 347
335 335 330 319 315 316 310 307 302 302 305 306 309 318 310 308 308 317 311 313 308 316 324 323 309 300 294 298 300 306 301 305 318 321 322 324 328 332 332 335 337 339 344
337 333 333 331 323 316 314 311 308 307 308 307 305 306 309 311 317 317 313 320 315 309 323 319 318 317 301 299 297 300 297 297 309 318 321 317 319 322 326 331 335 338 345
339 338 336 334 333 326 320 316 318 308 301 305 304 305 304 307 305 310 320 316 316 312 299 291 291 304 305 308 301 302 307 306 299 306 313 317 316 318 319 324 330 334 343
343 343 342 340 337 336 331 327 319 319 315 310 307 307 305 301 302 306 308 316 314 311 305 297 285 294 290 300 312 310 302 304 300 301 300 308 310 311 314 319 323 331 337
344 346 349 348 346 343 340 332 331 323 325 320 314 308 305 308 303 302 304 307 306 304 302 306 305 301 297 302 308 307 307 309 304 303 304 305 309 311 309 312 318 326 336